This is the latest recevied weather packets stored in our database for station/object N4NVD-13. If no packets are shown the sender has not sent any weather packets the latest 10 day(s).
| Time | Temp. | Humidity | Pressure | Rain* | Wind** | Luminosity | Snow |
|---|---|---|---|---|---|---|---|
| 1777476425 | 26.11° C | 95% | 1012 hPa | 0 mm | - | 93 W/m² | - |
| 1777476121 | 26.11° C | 94% | 1012.1 hPa | 0 mm | - | 94 W/m² | - |
| 1777475817 | 25.56° C | 95% | 1012 hPa | 0 mm | - | 117 W/m² | - |
| 1777475513 | 25.56° C | 95% | 1012.1 hPa | 0 mm | - | 95 W/m² | - |
| 1777475210 | 25.56° C | 95% | 1011.8 hPa | 0 mm | - | 64 W/m² | - |
| 1777474905 | 25.56° C | 95% | 1011.8 hPa | 0 mm | - | 46 W/m² | - |
| 1777474601 | 25.56° C | 95% | 1011.9 hPa | 0 mm | - | 55 W/m² | - |
| 1777474298 | 25.56° C | 95% | 1011.8 hPa | 0 mm | - | 61 W/m² | - |
| 1777473994 | 25.56° C | 95% | 1011.4 hPa | 0 mm | - | 76 W/m² | - |
| 1777473693 | 26.11° C | 95% | 1011.6 hPa | 0 mm | - | 92 W/m² | - |
| 1777473388 | 25.56° C | 96% | 1011.3 hPa | 0 mm | - | 95 W/m² | - |
| 1777473085 | 25.56° C | 96% | 1011.5 hPa | 0 mm | - | 81 W/m² | - |
| 1777472781 | 25.56° C | 96% | 1011.4 hPa | 0 mm | - | 57 W/m² | - |
| 1777472478 | 25.56° C | 96% | 1011.5 hPa | 0 mm | - | 53 W/m² | - |
| 1777472175 | 25.56° C | 96% | 1011.4 hPa | 0 mm | - | 61 W/m² | - |
| 1777471870 | 25.56° C | 96% | 1011.4 hPa | 0 mm | - | 49 W/m² | - |
| 1777471567 | 25.56° C | 96% | 1011.4 hPa | 0 mm | - | 48 W/m² | - |
| 1777471264 | 25.56° C | 96% | 1011.5 hPa | 0 mm | - | 67 W/m² | - |
| 1777470960 | 25.56° C | 96% | 1011.5 hPa | 0 mm | - | 57 W/m² | - |
| 1777470657 | 25.56° C | 96% | 1011.6 hPa | 0 mm | - | 64 W/m² | - |
| 1777470353 | 25.56° C | 96% | 1011.4 hPa | 0 mm | - | 83 W/m² | - |
| 1777470050 | 25.56° C | 96% | 1011.1 hPa | 0 mm | - | 116 W/m² | - |
| 1777469746 | 25.56° C | 96% | 1011.1 hPa | 0 mm | - | 97 W/m² | - |
| 1777469442 | 25.56° C | 97% | 1010.8 hPa | 0 mm | - | 98 W/m² | - |
| 1777469137 | 25° C | 97% | 1010.9 hPa | 0 mm | - | 65 W/m² | - |
* Rain latest hour (hover to see other rain measurements)
** Current wind speed in m/s (hover to see current wind gust speed)